Location: Newsoms
(36.6240°N, 77.1250°W)
Time: 19:17:09
(UTC-05:00)

Daily predictions for brighter satellites

Satellite Brightness Start Highest point End
(mag) Time Altitude Azimuth Time Altitude Azimuth Time Altitude Azimuth
Thor Agena Rocket 4.4 18:14:11 10° N 18:19:07 55° WNW 18:24:00 10° SSW
COSMO-SKYMED 1 2.7 18:16:19 10° N 18:20:41 83° WNW 18:25:01 10° SSW
Okean 2 Rocket 3.2 18:18:37 10° S 18:23:04 84° W 18:27:33 10° N
Cosmos 1190 Rocket 4.0 18:19:24 10° S 18:24:34 72° ESE 18:29:45 10° NNE
BREEZE-M DEB (TANK) 4.2 18:21:40 10° SSW 18:27:02 28° SSE 18:29:38 10° E
CZ-3C R/B 3.8 18:19:17 10° SW 18:28:22 19° SSW 18:32:13 10° SSE
Okean 1 3.9 18:25:53 10° NNE 18:29:38 36° E 18:33:23 10° SSE
Cosmos 2292 Rocket 4.4 18:26:05 10° SSE 18:30:34 45° E 18:36:31 10° NNE
deb Kosmos-1763 4.2 18:27:31 10° SSW 18:31:18 88° W 18:35:07 10° NNE
Cosmos 1461 3.5 18:27:40 10° NNW 18:31:22 35° NE 18:35:09 10° ESE
Meteor 1-25 Rocket 4.2 18:27:48 10° S 18:33:23 87° E 18:39:05 10° N
CENTAUR R/B 3.6 18:26:52 10° NW 18:34:50 70° WSW 18:43:09 10° SSE
Cosmos 44 2.9 18:30:44 10° NNW 18:35:09 81° ENE 18:39:27 10° SSE
Cosmos 1346 Rocket 4.4 18:33:25 10° NNW 18:37:06 39° W 18:40:44 10° SSW
H-2A R/B 4.3 18:35:39 10° ESE 18:37:57 16° ENE 18:40:15 10° NNE
Cosmos 1745 Rocket 4.4 18:32:59 10° SSW 18:39:18 72° W 18:45:35 10° N
Cosmos 2151 Rocket 3.6 18:37:16 10° S 18:41:44 70° E 18:46:14 10° NNE
Cosmos 1812 2.8 18:43:14 10° N 18:47:06 80° W 18:50:57 10° S
NOAA 12 4.1 18:42:08 10° SSE 18:47:26 81° ENE 18:52:47 10° N
Meteor 1-11 Rocket 4.2 18:42:28 10° SSE 18:47:44 39° E 18:53:08 10° NNE
Okean 1 Rocket 3.9 18:44:47 10° SSE 18:48:36 28° E 18:52:27 10° NNE
ATLAS CENTAUR R/B 4.0 18:47:36 10° SSE 18:49:33 12° SE 18:50:38 11° ESE
METEOR-M 4.1 18:45:27 10° SSE 18:50:47 85° ENE 18:56:09 10° NNW
Cosmos 1954 Rocket 4.0 18:47:16 10° S 18:52:20 60° ESE 18:57:29 10° NNE
GPS 2-04 Rocket1 4.4 18:50:51 10° SSW 18:54:11 22° SSE 18:56:14 16° ESE
Cosmos 2219 4.2 18:50:23 10° SSE 18:54:53 24° E 18:58:54 12° NE
GEOS 3 Rocket 3.6 18:49:48 10° NE 18:55:04 80° ESE 19:00:21 10° SSW
HJ-1C 3.8 18:52:35 10° SE 18:55:46 39° ENE 18:58:56 10° N
Cosmos 2360 Rocket 2.6 18:54:54 10° N 19:00:12 39° ENE 19:05:08 12° SE
Abrixas rocket 4.3 18:58:46 10° SSE 19:00:14 14° SE 19:00:14 14° SE
Cosmos 2219 Rocket 4.1 19:01:16 10° NE 19:02:23 11° NE 19:02:23 11° NE
Helios 1B rocket 3.3 19:07:49 26° E 19:08:06 26° E 19:11:36 10° SSE
Okean 1-7 Rocket 4.4 19:05:22 10° NNE 19:09:22 29° ENE 19:10:37 25° ESE
Cosmos 1602 3.6 19:06:37 10° S 19:10:27 75° E 19:14:20 10° N
OAO 3 Copernicus 4.4 19:05:30 10° W 19:10:34 72° S 19:13:24 26° ESE
Cosmos 1633 2.5 19:07:16 10° S 19:10:56 84° E 19:14:38 10° N
FREGAT/IRIS 3.8 19:12:59 10° S 19:15:57 45° W 19:18:56 10° NNW
ALOS 2.2 19:13:49 10° SSE 19:18:28 85° ENE 19:23:10 10° N
Cosmos 1025 Rocket 4.3 19:16:04 10° NNE 19:18:32 24° NE 19:18:32 24° NE
Cosmos 1833 4.3 19:14:32 10° SSW 19:20:15 81° WNW 19:25:57 10° NNE
NOSS 8 (F) 4.3 19:16:46 10° SSW 19:20:20 78° ESE 19:21:42 34° NE
H-2A R/B 4.4 19:19:33 10° SSE 19:20:31 12° SE 19:20:31 12° SE
Cosmos 1536 Rocket 4.4 19:22:13 10° NNW 19:26:35 54° W 19:30:56 10° S
Cosmos 2333 Rocket 4.1 19:25:09 10° NNE 19:27:00 14° NE 19:27:00 14° NE
Intercosmos 24 4.2 19:28:15 10° SSE 19:32:00 50° E 19:37:03 10° NNE
SJ-6B 4.4 19:28:23 10° SSW 19:32:09 37° W 19:35:52 10° NNW
Cosmos 1741 Rocket 3.9 19:27:30 10° S 19:32:39 64° ESE 19:37:49 10° NNE
SL-08 ROCKET BODY 4.4 19:27:18 10° S 19:33:22 66° E 19:39:31 10° NNE
SL-16 R/B 3.6 19:28:46 10° NW 19:33:59 39° WSW 19:39:11 10° S
FengYun 1-2 T 4.3 19:28:39 10° S 19:34:07 75° WSW 19:39:37 10° NNW
Resurs 01 Rocket 1.7 19:33:33 10° S 19:37:57 76° WSW 19:42:22 10° NNW
Cosmos 1340 3.9 19:39:04 10° NNW 19:42:39 41° W 19:46:13 10° SSW
Gbstr 26 Del rocket 2.8 19:39:51 10° WSW 19:43:38 64° NW 19:43:57 60° N
Cosmos 1238 Rocket 3.5 19:41:12 10° NNW 19:44:00 37° W 19:45:29 21° SSW
Meteor 1-19 Rocket 4.4 19:38:21 10° NNW 19:44:01 75° W 19:49:46 10° S
Cosmos 2327 Rocket 4.3 19:40:19 10° S 19:46:27 71° E 19:52:43 10° NNE
DELTA 2 R/B (1) 3.5 19:41:47 10° WNW 19:47:26 90° NNE 19:48:38 57° ESE
Meteor 1-5 Rocket 4.2 19:42:06 10° S 19:48:00 69° E 19:53:55 10° NNE
Cosmos 1570 Rocket 3.9 19:43:19 10° N 19:48:30 60° ENE 19:48:44 60° E
Cosmos 2322 Rocket 4.3 19:47:12 10° NW 19:51:44 26° WSW 19:56:17 10° SSW
Tiangong 2 3.1 19:52:53 10° WNW 19:54:34 28° W 19:54:34 28° W
Cosmos 1536 3.6 19:53:51 10° SSW 19:57:43 49° W 20:01:37 10° N
Resurs 1-3 4.5 19:56:27 10° S 20:00:41 49° W 20:04:57 10° NNW
CZ-2D R/B 4.1 20:03:05 49° WNW 20:03:05 49° WNW 20:06:22 10° NNW
Cosmos 2322 4.0 19:59:09 10° NNW 20:04:49 67° WSW 20:07:31 31° S
Cosmos 2074 Rocket 4.1 19:59:25 10° SSW 20:05:39 75° W 20:11:57 10° N
Cosmos 2184 Rocket 4.1 20:00:01 10° S 20:06:20 78° W 20:12:39 10° N
Meteor 1-23 Rocket 4.3 20:04:37 10° NNW 20:10:26 77° W 20:12:58 35° S
Cosmos 2208 Rocket 4.0 20:07:20 10° NNW 20:12:31 81° NNW 20:12:31 81° NNW
COSMOS 2428 2.9 20:12:13 10° NNW 20:16:58 63° N 20:16:58 63° N
Meteor 2-4 Rocket 4.4 20:12:44 10° NNW 20:18:04 51° W 20:22:38 13° SSW
Cosmos 2237 4.2 20:12:43 10° NNW 20:18:27 78° WSW 20:18:32 78° WSW
Helios 1A 4.4 20:21:30 35° WNW 20:21:30 35° WNW 20:24:20 10° NNW
Cosmos 2237 Rocket 4.2 20:22:30 10° N 20:23:53 16° N 20:23:53 16° N
USA 229 DEB 4.0 20:26:09 10° NNW 20:32:15 60° NNE 20:32:15 60° NNE
USA 229 4.0 20:26:15 10° NNW 20:32:20 59° NNE 20:32:20 59° NNE
Cosmos 2285 Rocket 4.2 20:29:18 10° NNW 20:34:37 63° NNW 20:34:37 63° NNW
Cosmos 2219 4.3 20:33:18 10° SW 20:38:43 42° WNW 20:41:02 29° NNW
Cosmos 2360 Rocket 4.1 20:39:23 10° NW 20:43:55 25° WSW 20:47:02 16° SW
Cosmos 2219 Rocket 3.8 20:41:53 10° NNW 20:44:09 25° NNW 20:44:09 25° NNW
Cosmos 2333 Rocket 4.4 21:07:29 10° NNW 21:09:02 19° NNW 21:09:02 19° NNW
